TimeCST,TemperatureF,Dew PointF,Humidity,Sea Level PressureIn,VisibilityMPH,Wind Direction,Wind SpeedMPH,Gust SpeedMPH,PrecipitationIn,Events,Conditions,WindDirDegrees,DateUTC
12:15 AM,37.6,29.5,73,30.02,10.0,West,6.9,-,N/A,,Clear,260,2013-03-03 06:15:00
12:35 AM,37.6,29.3,72,30.01,10.0,West,5.8,-,N/A,,Clear,270,2013-03-03 06:35:00
12:55 AM,36.9,29.1,74,30.00,10.0,West,8.1,-,N/A,,Clear,270,2013-03-03 06:55:00
1:15 AM,37.0,29.1,73,29.99,10.0,WSW,8.1,-,N/A,,Clear,250,2013-03-03 07:15:00
2:15 AM,36.0,29.3,77,29.96,10.0,WSW,9.2,-,N/A,,Clear,240,2013-03-03 08:15:00
2:35 AM,36.0,29.3,77,29.95,10.0,WSW,6.9,-,N/A,,Clear,240,2013-03-03 08:35:00
2:55 AM,36.1,28.8,75,29.93,10.0,SW,8.1,-,N/A,,Clear,230,2013-03-03 08:55:00
3:15 AM,36.7,28.4,72,29.91,10.0,SW,8.1,-,N/A,,Clear,220,2013-03-03 09:15:00
3:35 AM,35.8,27.9,73,29.90,10.0,WSW,8.1,-,N/A,,Clear,240,2013-03-03 09:35:00
3:55 AM,35.1,27.9,75,29.88,10.0,SW,6.9,-,N/A,,Clear,230,2013-03-03 09:55:00
4:15 AM,36.7,27.5,69,29.87,10.0,SW,5.8,-,N/A,,Clear,220,2013-03-03 10:15:00
4:35 AM,37.2,27.5,68,29.87,10.0,SW,4.6,-,N/A,,Clear,220,2013-03-03 10:35:00
4:55 AM,39.9,27.5,61,29.86,10.0,SSW,6.9,-,N/A,,Clear,210,2013-03-03 10:55:00
5:15 AM,39.2,27.5,63,29.85,10.0,SW,8.1,-,N/A,,Clear,230,2013-03-03 11:15:00
5:35 AM,38.8,28.2,66,29.85,10.0,WSW,11.5,-,N/A,,Clear,250,2013-03-03 11:35:00
5:55 AM,38.3,28.2,67,29.84,10.0,West,10.4,-,N/A,,Clear,260,2013-03-03 11:55:00
6:15 AM,36.7,28.4,72,29.84,10.0,West,10.4,-,N/A,,Clear,260,2013-03-03 12:15:00
6:35 AM,36.0,28.6,75,29.83,10.0,West,6.9,-,N/A,,Clear,270,2013-03-03 12:35:00
6:55 AM,35.8,28.8,76,29.82,10.0,West,5.8,-,N/A,,Clear,270,2013-03-03 12:55:00
7:15 AM,36.9,29.3,74,29.80,10.0,SW,12.7,-,N/A,,Clear,230,2013-03-03 13:15:00
7:35 AM,38.3,28.9,69,29.80,10.0,WSW,10.4,-,N/A,,Clear,250,2013-03-03 13:35:00
7:55 AM,40.6,27.9,60,29.80,10.0,WSW,11.5,-,N/A,,Clear,250,2013-03-03 13:55:00
8:15 AM,41.9,27.7,57,29.80,10.0,WSW,10.4,-,N/A,,Clear,250,2013-03-03 14:15:00
8:35 AM,41.5,28.4,60,29.80,10.0,West,6.9,-,N/A,,Clear,270,2013-03-03 14:35:00
8:55 AM,45.7,28.4,51,29.80,10.0,West,11.5,-,N/A,,Clear,260,2013-03-03 14:55:00
9:15 AM,48.4,27.3,44,29.80,10.0,West,13.8,-,N/A,,Clear,260,2013-03-03 15:15:00
9:35 AM,50.5,24.6,36,29.79,10.0,West,15.0,-,N/A,,Clear,270,2013-03-03 15:35:00
9:55 AM,48.2,26.4,43,29.79,10.0,West,9.2,-,N/A,,Clear,280,2013-03-03 15:55:00
10:15 AM,48.4,27.9,45,29.79,10.0,West,9.2,-,N/A,,Scattered Clouds,280,2013-03-03 16:15:00
10:35 AM,48.9,28.4,45,29.77,10.0,West,8.1,-,N/A,,Overcast,280,2013-03-03 16:35:00
10:55 AM,50.4,28.2,42,29.77,10.0,WNW,9.2,-,N/A,,Mostly Cloudy,290,2013-03-03 16:55:00
11:15 AM,51.6,28.0,40,29.76,10.0,West,13.8,-,N/A,,Mostly Cloudy,270,2013-03-03 17:15:00
11:35 AM,53.6,25.9,34,29.74,10.0,West,17.3,21.9,N/A,,Scattered Clouds,280,2013-03-03 17:35:00
11:55 AM,54.9,26.4,33,29.74,10.0,WNW,23.0,28.8,N/A,,Clear,290,2013-03-03 17:55:00
12:15 PM,55.8,26.2,32,29.74,10.0,WNW,19.6,26.5,N/A,,Clear,300,2013-03-03 18:15:00
12:35 PM,54.9,27.3,35,29.72,10.0,WNW,19.6,27.6,N/A,,Mostly Cloudy,300,2013-03-03 18:35:00
12:55 PM,56.7,27.5,33,29.70,10.0,WNW,26.5,36.8,N/A,,Scattered Clouds,290,2013-03-03 18:55:00
1:15 PM,58.1,27.0,30,29.68,10.0,WNW,31.1,38.0,N/A,,Clear,290,2013-03-03 19:15:00
1:35 PM,60.1,27.5,29,29.67,10.0,West,29.9,41.4,N/A,,Clear,280,2013-03-03 19:35:00
1:55 PM,61.7,26.2,26,29.66,10.0,West,33.4,40.3,N/A,,Clear,270,2013-03-03 19:55:00
2:15 PM,61.7,26.4,26,29.65,10.0,West,28.8,35.7,N/A,,Clear,280,2013-03-03 20:15:00
2:35 PM,62.2,27.5,27,29.64,10.0,WNW,27.6,35.7,N/A,,Clear,290,2013-03-03 20:35:00
2:55 PM,62.2,26.6,26,29.64,10.0,West,26.5,33.4,N/A,,Clear,280,2013-03-03 20:55:00
3:15 PM,63.0,26.4,25,29.63,10.0,West,25.3,34.5,N/A,,Clear,280,2013-03-03 21:15:00
3:35 PM,62.8,26.1,25,29.63,10.0,West,26.5,-,N/A,,Clear,280,2013-03-03 21:35:00
3:55 PM,61.5,28.0,28,29.62,10.0,WNW,23.0,28.8,N/A,,Clear,300,2013-03-03 21:55:00
4:15 PM,61.3,27.3,27,29.62,10.0,WNW,21.9,29.9,N/A,,Clear,300,2013-03-03 22:15:00
4:35 PM,59.7,29.3,32,29.63,10.0,NW,19.6,24.2,N/A,,Clear,320,2013-03-03 22:35:00
4:55 PM,57.7,29.8,35,29.63,10.0,NW,20.7,27.6,N/A,,Clear,310,2013-03-03 22:55:00
5:15 PM,56.3,30.2,37,29.63,10.0,NW,19.6,28.8,N/A,,Clear,310,2013-03-03 23:15:00
5:35 PM,54.3,30.2,40,29.63,10.0,WNW,25.3,29.9,N/A,,Clear,300,2013-03-03 23:35:00
5:55 PM,53.2,30.9,43,29.64,10.0,NW,15.0,25.3,N/A,,Clear,310,2013-03-03 23:55:00
6:35 PM,51.4,32.0,47,29.65,10.0,NW,11.5,-,N/A,,Clear,310,2013-03-04 00:35:00
6:55 PM,48.4,32.0,53,29.66,10.0,WNW,9.2,-,N/A,,Clear,300,2013-03-04 00:55:00
7:15 PM,48.6,30.9,51,29.66,10.0,NNW,8.1,-,N/A,,Clear,330,2013-03-04 01:15:00
7:35 PM,48.2,29.1,48,29.66,10.0,WNW,20.7,25.3,N/A,,Clear,290,2013-03-04 01:35:00
7:55 PM,48.6,27.9,45,29.65,10.0,West,17.3,-,N/A,,Clear,280,2013-03-04 01:55:00
8:15 PM,47.8,28.2,47,29.64,10.0,West,18.4,23.0,N/A,,Clear,260,2013-03-04 02:15:00
8:35 PM,45.5,28.9,52,29.65,10.0,West,12.7,-,N/A,,Clear,270,2013-03-04 02:35:00
8:55 PM,44.4,28.9,55,29.65,10.0,West,12.7,-,N/A,,Clear,270,2013-03-04 02:55:00
9:15 PM,43.2,29.3,58,29.64,10.0,WSW,13.8,-,N/A,,Clear,250,2013-03-04 03:15:00
9:35 PM,42.8,28.9,58,29.65,10.0,West,15.0,-,N/A,,Clear,260,2013-03-04 03:35:00
9:55 PM,42.1,28.8,59,29.65,10.0,West,13.8,-,N/A,,Clear,260,2013-03-04 03:55:00
10:15 PM,42.3,28.2,58,29.65,10.0,West,11.5,-,N/A,,Clear,270,2013-03-04 04:15:00
10:35 PM,41.2,28.2,60,29.65,10.0,West,11.5,-,N/A,,Clear,260,2013-03-04 04:35:00
10:55 PM,39.0,28.0,65,29.66,10.0,West,9.2,-,N/A,,Clear,270,2013-03-04 04:55:00
11:15 PM,38.7,27.9,65,29.64,10.0,West,13.8,-,N/A,,Clear,260,2013-03-04 05:15:00
11:35 PM,38.3,27.9,66,29.65,10.0,West,9.2,-,N/A,,Clear,270,2013-03-04 05:35:00
11:55 PM,37.6,27.9,68,29.66,10.0,West,8.1,-,N/A,,Clear,270,2013-03-04 05:55:00